Change the Weather History Date:

Saturday, March 30, 2013

  Actual Average Record
Temperature  
Mean Temperature 46 °F -  
Max Temperature 66 °F 57 °F 73 °F (2012)
Min Temperature 26 °F 24 °F 7 °F (1987)
Degree Days  
Heating Degree Days 19    
Moisture  
Dew Point 16 °F    
Average Humidity 32    
Maximum Humidity 53    
Minimum Humidity 16    
Precipitation  
Precipitation 0.00 in - - ()
Sea Level Pressure  
Sea Level Pressure 30.05 in    
Wind  
Wind Speed 4 mph (West)    
Max Wind Speed 17 mph    
Max Gust Speed 26 mph    
Visibility 10 miles    
Events      
Averages and records for this station are not official NWS values.
T = Trace of Precipitation, MM = Missing Value Source: NWS Daily Summary

Daily Weather History Graph

Daily Weather History Graph

Search for Another Location

Airport or City:

Trip Planner

Search our weather history database for the weather conditions in past years. The results will help you decide how hot, cold, wet, or windy it might be!

Date:

Astronomy

Mar. 30, 2013 Rise Set
Actual Time 7:04 AM MDT 7:35 PM MDT
Civil Twilight 6:38 AM MDT 8:01 PM MDT
Nautical Twilight 6:08 AM MDT 8:31 PM MDT
Astronomical Twilight 5:37 AM MDT 9:01 PM MDT
Moon 11:36 PM MDT (3/30) 9:09 AM MDT (3/30)
Length of Visible Light 13h 22m
Length of Day
12h 31m
Waning Gibbous, 86% of the Moon is Illuminated
Mar 30
Waning Gibbous
Apr 2
Last Quarter
Apr 10
New
Apr 18
First Quarter
Apr 25
Full

Hourly Weather History & Observations

Time (MDT) Temp. Windchill Dew Point Humidity Pressure Visibility Wind Dir Wind Speed Gust Speed Precip Events Conditions
12:53 AM 37.0 °F 34.5 °F 12.9 °F 37% 30.05 in 10.0 mi East 3.5 mph - N/A   Clear
1:53 AM 30.9 °F - 10.0 °F 42% 30.06 in 10.0 mi Calm Calm - N/A   Clear
2:53 AM 30.0 °F - 10.0 °F 43% 30.03 in 10.0 mi Calm Calm - N/A   Clear
3:53 AM 28.0 °F - 10.0 °F 47% 30.08 in 10.0 mi Calm Calm - N/A   Clear
4:53 AM 26.1 °F 21.9 °F 10.9 °F 53% 30.09 in 10.0 mi ENE 3.5 mph - N/A   Clear
5:53 AM 28.9 °F 25.2 °F 12.0 °F 49% 30.07 in 10.0 mi ENE 3.5 mph - N/A   Clear
6:53 AM 28.9 °F 25.2 °F 12.9 °F 51% 30.09 in 10.0 mi ENE 3.5 mph - N/A   Clear
7:53 AM 30.9 °F - 12.9 °F 47% 30.14 in 10.0 mi Calm Calm - N/A   Clear
8:53 AM 42.1 °F - 16.0 °F 35% 30.11 in 10.0 mi Calm Calm - N/A   Clear
9:53 AM 48.0 °F - 17.1 °F 29% 30.12 in 10.0 mi Calm Calm - N/A   Clear
10:53 AM 55.0 °F - 18.0 °F 23% 30.07 in 10.0 mi Calm Calm - N/A   Clear
11:53 AM 61.0 °F - 19.0 °F 20% 30.05 in 10.0 mi Calm Calm - N/A   Clear
12:53 PM 64.0 °F - 19.0 °F 18% 29.99 in 10.0 mi SSW 5.8 mph - N/A   Clear
1:53 PM 66.0 °F - 19.0 °F 17% 29.99 in 10.0 mi WSW 13.8 mph 19.6 mph N/A   Mostly Cloudy
2:53 PM 64.9 °F - 19.0 °F 17% 29.98 in 10.0 mi SSW 11.5 mph 19.6 mph N/A   Clear
3:27 PM 64.4 °F - 19.4 °F 18% 30.16 in 10.0 mi WNW 12.7 mph 25.3 mph N/A   Scattered Clouds
3:53 PM 64.9 °F - 18.0 °F 16% 29.98 in 10.0 mi WSW 13.8 mph 26.5 mph N/A   Mostly Cloudy
4:53 PM 63.0 °F - 19.0 °F 18% 30.00 in 10.0 mi NW 17.3 mph 26.5 mph N/A   Overcast
5:53 PM 62.1 °F - 19.9 °F 20% 29.99 in 10.0 mi NW 11.5 mph - N/A   Overcast
6:53 PM 60.1 °F - 21.9 °F 23% 30.01 in 10.0 mi West 5.8 mph - N/A   Overcast
7:53 PM 57.0 °F - 21.9 °F 26% 30.04 in 10.0 mi WSW 10.4 mph - N/A   Overcast
8:53 PM 50.0 °F - 21.0 °F 32% 30.02 in 10.0 mi SW 3.5 mph - N/A   Mostly Cloudy
9:53 PM 39.0 °F - 16.0 °F 39% 30.05 in 10.0 mi Calm Calm - N/A   Scattered Clouds
10:53 PM 36.0 °F - 15.1 °F 43% 30.03 in 10.0 mi Calm Calm - N/A   Clear
11:53 PM 39.0 °F 34.8 °F 19.0 °F 45% 29.97 in 10.0 mi NNE 5.8 mph - N/A   Mostly Cloudy